Weather History for Capri, Italy

Change the Weather History Date:

Tuesday, February 25, 2014

  Actual Average Record
Temperature  
Mean Temperature 54 °F -  
Max Temperature 62 °F - - ()
Min Temperature 47 °F - - ()
Degree Days  
Heating Degree Days 10    
Growing Degree Days 4 (Base 50)    
Moisture  
Dew Point 46 °F    
Average Humidity 79    
Maximum Humidity 94    
Minimum Humidity 55    
Precipitation  
Precipitation 0.00 in - - ()
Sea Level Pressure  
Sea Level Pressure 30.14 in    
Wind  
Wind Speed 2 mph ()    
Max Wind Speed 6 mph    
Max Gust Speed -    
Visibility 11.2 miles    
Events      
T = Trace of Precipitation, MM = Missing Value Source: Averaged Metar Reports

Daily Weather History Graph

Daily Weather History Graph

Search for Another Location

Airport:

Trip Planner

Search our weather history database for the weather conditions in past years. The results will help you decide how hot, cold, wet, or windy it might be!

Date:

Astronomy

Feb. 25, 2014 Rise Set
Actual Time 6:43 AM CET 5:49 PM CET
Civil Twilight 6:15 AM CET 6:17 PM CET
Nautical Twilight 5:44 AM CET 6:49 PM CET
Astronomical Twilight 5:12 AM CET 7:20 PM CET
Moon 3:23 AM CET (2/25) 1:35 PM CET (2/25)
Length of Visible Light 12h 01m
Length of Day
11h 06m
Waning Crescent, 21% of the Moon is Illuminated
Feb 25
Waning Crescent
Mar 1
New
Mar 8
First Quarter
Mar 16
Full
Mar 24
Last Quarter

Hourly Weather History & Observations

Time (CET) Temp. Dew Point Humidity Pressure Visibility Wind Dir Wind Speed Gust Speed Precip Events Conditions
12:55 AM 50.0 °F 42.8 °F 76% 30.12 in - North - - N/A   Clear
1:00 AM 50 °F 44 °F 71% 30.14 in 12 mi 4.6 mph - -  
1:55 AM 50.0 °F 44.6 °F 82% 30.12 in - North - - N/A   Clear
4:00 AM 49 °F 45 °F 81% 30.14 in 12 mi Calm Calm - -  
5:55 AM 48.2 °F 44.6 °F 87% 30.12 in - North - - N/A   Clear
6:55 AM 48.2 °F 44.6 °F 87% 30.12 in - North - - N/A   Clear
7:00 AM 47 °F 45 °F 89% 30.14 in 12 mi 5.8 mph - -  
7:55 AM 48.2 °F 46.4 °F 93% 30.12 in - North - - N/A   Clear
8:55 AM 50.0 °F 46.4 °F 87% 30.12 in - North - - N/A   Clear
9:55 AM 51.8 °F 48.2 °F 88% 30.15 in - North - - N/A   Clear
10:00 AM 52 °F 48 °F 82% 30.17 in 12 mi 2.3 mph - -  
10:55 AM 53.6 °F 48.2 °F 82% 30.15 in - North - - N/A   Partly Cloudy
11:55 AM 53.6 °F 46.4 °F 77% 30.15 in - North - - N/A   Clear
12:55 PM 57.2 °F 48.2 °F 72% 30.15 in - North - - N/A   Partly Cloudy
1:00 PM 56 °F 48 °F 68% 30.16 in 12 mi 3.5 mph - -   Scattered Clouds
1:55 PM 60.8 °F 48.2 °F 63% 30.12 in - North - - N/A   Clear
2:55 PM 59.0 °F 44.6 °F 59% 30.12 in - North - - N/A   Clear
3:55 PM 57.2 °F 44.6 °F 63% 30.12 in - North - - N/A   Clear
4:00 PM 57 °F 45 °F 55% 30.14 in 6 mi Calm Calm - -  
4:55 PM 57.2 °F 46.4 °F 67% 30.09 in - North - - N/A   Clear
5:55 PM 51.8 °F 48.2 °F 88% 30.12 in - North - - N/A   Clear
6:55 PM 50.0 °F 46.4 °F 87% 30.12 in - North - - N/A   Clear
7:00 PM 51 °F 47 °F 80% 30.15 in 12 mi Calm Calm - -   Clear
7:55 PM 50.0 °F 46.4 °F 87% 30.12 in - North - - N/A   Clear
8:55 PM 50.0 °F 48.2 °F 94% 30.12 in - North - - N/A   Clear
9:55 PM 50.0 °F 46.4 °F 87% 30.15 in - North - - N/A   Clear
10:00 PM 50 °F 47 °F 84% 30.18 in 12 mi Calm Calm - -   Clear
10:55 PM 50.0 °F 44.6 °F 82% 30.15 in - North - - N/A   Clear
11:55 PM 50.0 °F 46.4 °F 87% 30.15 in - North - - N/A   Clear